| time (UTC) | temp F | wind direction | speed MPH | gust MPH | rain 1hr in | rain 24hr in | rain mn in | humidity % | barometer mb |
| 20260508012904 | 76 | 106 | 2.0 | 9.0 | 0.00 | 0.00 | 0.00 | 78 | 1016.5 |
| 20260508012404 | 77 | 121 | 1.0 | 9.0 | 0.00 | 0.00 | 0.00 | 77 | 1016.5 |
| 20260508011904 | 77 | 98 | 2.0 | 7.0 | 0.00 | 0.00 | 0.00 | 77 | 1016.4 |
| 20260508011405 | 76 | 92 | 2.0 | 10.0 | 0.00 | 0.00 | 0.00 | 78 | 1016.4 |
| 20260508005904 | 76 | 100 | 1.0 | 7.0 | 0.00 | 0.00 | 0.00 | 80 | 1016.2 |
| 20260508004404 | 76 | 97 | 3.0 | 8.0 | 0.00 | 0.00 | 0.00 | 79 | 1016.2 |
| 20260508003405 | 76 | 115 | 2.0 | 9.0 | 0.00 | 0.00 | 0.00 | 79 | 1016.2 |
| 20260508002904 | 76 | 84 | 2.0 | 7.0 | 0.00 | 0.00 | 0.00 | 79 | 1016.2 |
| 20260508002404 | 76 | 108 | 2.0 | 8.0 | 0.00 | 0.00 | 0.00 | 79 | 1016.3 |
| 20260508001905 | 76 | 103 | 0.0 | 3.0 | 0.00 | 0.00 | 0.00 | 80 | 1016.2 |
| 20260508001404 | 76 | 105 | 1.0 | 6.0 | 0.00 | 0.00 | 0.00 | 80 | 1016.2 |
| 20260508000904 | 76 | 84 | 1.0 | 3.0 | 0.00 | 0.00 | 0.00 | 80 | 1016.2 |
| 20260508000405 | 76 | 93 | 0.0 | 3.0 | 0.00 | 0.00 | 0.00 | 79 | 1016.2 |
| 20260507235904 | 76 | 117 | 0.0 | 3.0 | 0.00 | 0.00 | 0.00 | 78 | 1016.3 |
| 20260507234904 | 76 | 85 | 0.0 | 7.0 | 0.00 | 0.00 | 0.00 | 78 | 1016.3 |
| 20260507234403 | 76 | 107 | 2.0 | 9.0 | 0.00 | 0.00 | 0.00 | 78 | 1016.3 |
| 20260507233904 | 76 | 99 | 2.0 | 8.0 | 0.00 | 0.00 | 0.00 | 78 | 1016.3 |
| 20260507232904 | 76 | 110 | 1.0 | 6.0 | 0.00 | 0.00 | 0.00 | 78 | 1016.4 |
| 20260507232404 | 76 | 75 | 1.0 | 7.0 | 0.00 | 0.00 | 0.00 | 78 | 1016.3 |
| 20260507231904 | 76 | 95 | 1.0 | 6.0 | 0.00 | 0.00 | 0.00 | 79 | 1016.5 |
| 20260507230904 | 76 | 78 | 2.0 | 10.0 | 0.00 | 0.00 | 0.00 | 79 | 1016.5 |
| 20260507225404 | 76 | 78 | 1.0 | 5.0 | 0.00 | 0.00 | 0.00 | 80 | 1016.6 |
| 20260507224904 | 75 | 92 | 0.0 | 3.0 | 0.00 | 0.00 | 0.00 | 80 | 1016.5 |
| 20260507224404 | 76 | 172 | 0.0 | 3.0 | 0.00 | 0.00 | 0.00 | 78 | 1016.5 |
| 20260507223904 | 76 | 4 | 0.0 | 3.0 | 0.00 | 0.00 | 0.00 | 78 | 1016.5 |
| 20260507223404 | 76 | 130 | 0.0 | 7.0 | 0.00 | 0.00 | 0.00 | 78 | 1016.5 |
| 20260507222904 | 76 | 121 | 0.0 | 9.0 | 0.00 | 0.00 | 0.00 | 78 | 1016.5 |
| 20260507222404 | 76 | 80 | 2.0 | 7.0 | 0.00 | 0.00 | 0.00 | 78 | 1016.5 |
| 20260507221904 | 76 | 95 | 2.0 | 9.0 | 0.00 | 0.00 | 0.00 | 79 | 1016.5 |
| 20260507221404 | 76 | 136 | 0.0 | 6.0 | 0.00 | 0.00 | 0.00 | 78 | 1016.6 |
| 20260507220904 | 76 | 130 | 1.0 | 9.0 | 0.00 | 0.00 | 0.00 | 78 | 1016.6 |
| 20260507220404 | 76 | 99 | 0.0 | 8.0 | 0.00 | 0.00 | 0.00 | 78 | 1016.6 |
| 20260507215904 | 76 | 103 | 1.0 | 8.0 | 0.00 | 0.00 | 0.00 | 77 | 1016.6 |
| 20260507215404 | 76 | 119 | 3.0 | 12.0 | 0.00 | 0.00 | 0.00 | 77 | 1016.7 |
| 20260507214905 | 76 | 98 | 1.0 | 12.0 | 0.00 | 0.00 | 0.00 | 79 | 1016.6 |
| 20260507214404 | 75 | 120 | 1.0 | 8.0 | 0.00 | 0.00 | 0.00 | 81 | 1016.7 |
| 20260507213904 | 75 | 112 | 1.0 | 6.0 | 0.00 | 0.00 | 0.00 | 82 | 1016.7 |
| 20260507213404 | 74 | 120 | 0.0 | 7.0 | 0.00 | 0.00 | 0.00 | 82 | 1016.8 |
| 20260507212905 | 74 | 146 | 1.0 | 6.0 | 0.00 | 0.00 | 0.00 | 82 | 1016.9 |
| 20260507212404 | 74 | 155 | 1.0 | 8.0 | 0.00 | 0.00 | 0.00 | 82 | 1016.9 |
| 20260507211904 | 74 | 163 | 1.0 | 7.0 | 0.00 | 0.00 | 0.00 | 83 | 1016.8 |
| 20260507210904 | 74 | 147 | 0.0 | 3.0 | 0.00 | 0.00 | 0.00 | 82 | 1016.9 |
| 20260507210404 | 74 | 133 | 0.0 | 7.0 | 0.00 | 0.00 | 0.00 | 82 | 1016.9 |
| 20260507205404 | 74 | 165 | 0.0 | 1.0 | 0.00 | 0.00 | 0.00 | 82 | 1017.0 |
| 20260507204904 | 74 | 173 | 0.0 | 0.0 | 0.00 | 0.00 | 0.00 | 82 | 1017.1 |
| 20260507204404 | 73 | 153 | 0.0 | 0.0 | 0.00 | 0.00 | 0.00 | 82 | 1017.1 |
| 20260507203904 | 73 | 148 | 0.0 | 0.0 | 0.00 | 0.00 | 0.00 | 83 | 1017.2 |
| 20260507202904 | 73 | 166 | 0.0 | 0.0 | 0.00 | 0.00 | 0.00 | 83 | 1017.2 |
| 20260507202404 | 73 | 162 | 0.0 | 1.0 | 0.00 | 0.00 | 0.00 | 83 | 1017.2 |
| 20260507201904 | 72 | 161 | 0.0 | 0.0 | 0.00 | 0.00 | 0.00 | 82 | 1017.3 |
| 20260507201404 | 72 | 175 | 0.0 | 0.0 | 0.00 | 0.00 | 0.00 | 82 | 1017.4 |
| 20260507200404 | 73 | 168 | 0.0 | 0.0 | 0.00 | 0.00 | 0.00 | 81 | 1017.4 |
| 20260507195905 | 73 | 167 | 0.0 | 0.0 | 0.00 | 0.00 | 0.00 | 81 | 1017.5 |
| 20260507195404 | 73 | 169 | 0.0 | 0.0 | 0.00 | 0.00 | 0.00 | 81 | 1017.5 |
| 20260507194904 | 73 | 163 | 0.0 | 0.0 | 0.00 | 0.00 | 0.00 | 80 | 1017.4 |
| 20260507194404 | 74 | 167 | 0.0 | 0.0 | 0.00 | 0.00 | 0.00 | 80 | 1017.5 |
| 20260507193404 | 74 | 170 | 1.0 | 6.0 | 0.00 | 0.00 | 0.00 | 78 | 1017.6 |
| 20260507192904 | 74 | 190 | 0.0 | 3.0 | 0.00 | 0.00 | 0.00 | 78 | 1017.5 |
| 20260507192405 | 75 | 172 | 0.0 | 2.0 | 0.00 | 0.00 | 0.00 | 78 | 1017.6 |
| 20260507191904 | 76 | 156 | 0.0 | 0.0 | 0.00 | 0.00 | 0.00 | 78 | 1017.6 |
| 20260507191404 | 76 | 150 | 0.0 | 7.0 | 0.00 | 0.00 | 0.00 | 78 | 1017.6 |
| 20260507190904 | 76 | 122 | 0.0 | 0.0 | 0.00 | 0.00 | 0.00 | 78 | 1017.6 |
| 20260507190404 | 76 | 142 | 0.0 | 3.0 | 0.00 | 0.00 | 0.00 | 77 | 1017.7 |
| 20260507185904 | 76 | 126 | 1.0 | 9.0 | 0.00 | 0.00 | 0.00 | 77 | 1017.7 |
| 20260507185404 | 76 | 117 | 2.0 | 7.0 | 0.00 | 0.00 | 0.00 | 77 | 1017.7 |
| 20260507184904 | 77 | 123 | 1.0 | 7.0 | 0.00 | 0.00 | 0.00 | 76 | 1017.7 |
| 20260507184404 | 77 | 112 | 1.0 | 9.0 | 0.00 | 0.00 | 0.00 | 76 | 1017.7 |
| 20260507183904 | 77 | 115 | 2.0 | 8.0 | 0.00 | 0.00 | 0.00 | 75 | 1017.7 |
| 20260507183404 | 77 | 112 | 2.0 | 8.0 | 0.00 | 0.00 | 0.00 | 75 | 1017.7 |
| 20260507182904 | 77 | 72 | 3.0 | 9.0 | 0.00 | 0.00 | 0.00 | 76 | 1017.7 |
| 20260507181404 | 77 | 107 | 4.0 | 12.0 | 0.00 | 0.00 | 0.00 | 76 | 1017.6 |
| 20260507180904 | 77 | 109 | 2.0 | 12.0 | 0.00 | 0.00 | 0.00 | 76 | 1017.6 |
| 20260507180404 | 77 | 99 | 2.0 | 12.0 | 0.00 | 0.00 | 0.00 | 75 | 1017.6 |
| 20260507175404 | 77 | 99 | 5.0 | 12.0 | 0.00 | 0.00 | 0.00 | 74 | 1017.5 |
| 20260507174904 | 77 | 102 | 4.0 | 13.0 | 0.00 | 0.00 | 0.00 | 75 | 1017.4 |
| 20260507174405 | 77 | 113 | 2.0 | 12.0 | 0.00 | 0.00 | 0.00 | 77 | 1017.6 |
| 20260507173904 | 77 | 88 | 3.0 | 12.0 | 0.00 | 0.00 | 0.00 | 77 | 1017.5 |
| 20260507173404 | 77 | 93 | 1.0 | 9.0 | 0.00 | 0.00 | 0.00 | 76 | 1017.4 |
| 20260507172904 | 77 | 96 | 3.0 | 9.0 | 0.00 | 0.00 | 0.00 | 76 | 1017.5 |
| 20260507172404 | 77 | 94 | 2.0 | 9.0 | 0.00 | 0.00 | 0.00 | 75 | 1017.5 |
| 20260507171904 | 77 | 113 | 1.0 | 9.0 | 0.00 | 0.00 | 0.00 | 75 | 1017.5 |
| 20260507171404 | 77 | 85 | 1.0 | 8.0 | 0.00 | 0.00 | 0.00 | 75 | 1017.5 |
| 20260507170404 | 77 | 111 | 1.0 | 7.0 | 0.00 | 0.00 | 0.00 | 77 | 1017.5 |
| 20260507165905 | 77 | 117 | 4.0 | 9.0 | 0.00 | 0.00 | 0.00 | 77 | 1017.5 |
| 20260507164904 | 77 | 85 | 2.0 | 9.0 | 0.00 | 0.00 | 0.00 | 77 | 1017.5 |
| 20260507164404 | 77 | 115 | 3.0 | 12.0 | 0.00 | 0.00 | 0.00 | 76 | 1017.5 |
| 20260507163903 | 77 | 112 | 2.0 | 12.0 | 0.00 | 0.00 | 0.00 | 76 | 1017.5 |
| 20260507163404 | 77 | 98 | 3.0 | 9.0 | 0.00 | 0.00 | 0.00 | 76 | 1017.4 |
| 20260507162904 | 77 | 102 | 2.0 | 8.0 | 0.00 | 0.00 | 0.00 | 77 | 1017.4 |
| 20260507162404 | 77 | 142 | 4.0 | 12.0 | 0.00 | 0.00 | 0.00 | 77 | 1017.3 |
| 20260507161904 | 77 | 115 | 1.0 | 8.0 | 0.00 | 0.00 | 0.00 | 77 | 1017.3 |
| 20260507161404 | 77 | 131 | 0.0 | 0.0 | 0.00 | 0.00 | 0.00 | 77 | 1017.3 |
| 20260507160904 | 77 | 115 | 2.0 | 8.0 | 0.00 | 0.00 | 0.00 | 77 | 1017.3 |
| 20260507160404 | 77 | 128 | 1.0 | 12.0 | 0.00 | 0.00 | 0.00 | 77 | 1017.2 |
| 20260507155904 | 77 | 95 | 1.0 | 9.0 | 0.00 | 0.00 | 0.00 | 77 | 1017.2 |
| 20260507155404 | 77 | 108 | 3.0 | 10.0 | 0.00 | 0.00 | 0.00 | 77 | 1017.1 |
| 20260507154904 | 77 | 117 | 3.0 | 12.0 | 0.00 | 0.00 | 0.00 | 77 | 1017.1 |
| 20260507154404 | 77 | 100 | 1.0 | 6.0 | 0.00 | 0.00 | 0.00 | 77 | 1017.0 |
| 20260507153904 | 76 | 124 | 2.0 | 7.0 | 0.00 | 0.00 | 0.00 | 77 | 1016.9 |
| 20260507153404 | 76 | 116 | 2.0 | 8.0 | 0.00 | 0.00 | 0.00 | 77 | 1016.9 |
| 20260507152904 | 76 | 140 | 1.0 | 9.0 | 0.00 | 0.00 | 0.00 | 77 | 1016.8 |
| 20260507152404 | 76 | 136 | 2.0 | 8.0 | 0.00 | 0.00 | 0.00 | 77 | 1016.7 |
| 20260507151904 | 76 | 121 | 0.0 | 0.0 | 0.00 | 0.00 | 0.00 | 77 | 1016.7 |
| 20260507151405 | 76 | 132 | 0.0 | 7.0 | 0.00 | 0.00 | 0.00 | 77 | 1016.7 |
| 20260507150904 | 76 | 86 | 1.0 | 9.0 | 0.00 | 0.00 | 0.00 | 77 | 1016.6 |
| 20260507150404 | 76 | 147 | 0.0 | 6.0 | 0.00 | 0.00 | 0.00 | 77 | 1016.6 |
| 20260507145404 | 76 | 130 | 1.0 | 9.0 | 0.00 | 0.00 | 0.00 | 77 | 1016.4 |
| 20260507144404 | 77 | 128 | 0.0 | 3.0 | 0.00 | 0.00 | 0.00 | 77 | 1016.4 |
| 20260507143404 | 77 | 110 | 1.0 | 9.0 | 0.00 | 0.00 | 0.00 | 77 | 1016.3 |
| 20260507142904 | 77 | 131 | 1.0 | 6.0 | 0.00 | 0.00 | 0.00 | 77 | 1016.2 |
| 20260507142404 | 77 | 110 | 1.0 | 9.0 | 0.00 | 0.00 | 0.00 | 77 | 1016.2 |
| 20260507141904 | 77 | 120 | 2.0 | 8.0 | 0.00 | 0.00 | 0.00 | 78 | 1016.2 |
| 20260507141404 | 77 | 138 | 1.0 | 8.0 | 0.00 | 0.00 | 0.00 | 78 | 1016.1 |
| 20260507140904 | 77 | 105 | 0.0 | 5.0 | 0.00 | 0.00 | 0.00 | 77 | 1016.1 |
| 20260507140404 | 77 | 111 | 2.0 | 8.0 | 0.00 | 0.00 | 0.00 | 77 | 1016.1 |
| 20260507135904 | 78 | 113 | 3.0 | 7.0 | 0.00 | 0.00 | 0.00 | 77 | 1016.0 |
| 20260507135404 | 78 | 129 | 0.0 | 9.0 | 0.00 | 0.00 | 0.00 | 77 | 1015.9 |
| 20260507134404 | 78 | 112 | 1.0 | 6.0 | 0.00 | 0.00 | 0.00 | 77 | 1016.0 |
| 20260507133904 | 78 | 127 | 1.0 | 10.0 | 0.00 | 0.00 | 0.00 | 77 | 1015.9 |
| 20260507132904 | 78 | 145 | 2.0 | 12.0 | 0.00 | 0.00 | 0.00 | 76 | 1015.9 |
| 20260507132403 | 79 | 109 | 1.0 | 5.0 | 0.00 | 0.00 | 0.00 | 76 | 1015.8 |
| 20260507131905 | 79 | 110 | 1.0 | 8.0 | 0.00 | 0.00 | 0.00 | 76 | 1015.8 |
| 20260507131404 | 79 | 131 | 4.0 | 12.0 | 0.00 | 0.00 | 0.00 | 76 | 1015.7 |
| 20260507130904 | 79 | 123 | 3.0 | 10.0 | 0.00 | 0.00 | 0.00 | 76 | 1015.6 |
| 20260507130404 | 80 | 104 | 5.0 | 13.0 | 0.00 | 0.00 | 0.00 | 75 | 1015.5 |
| 20260507125904 | 80 | 93 | 3.0 | 13.0 | 0.00 | 0.00 | 0.00 | 75 | 1015.4 |
| 20260507125405 | 80 | 103 | 1.0 | 12.0 | 0.00 | 0.00 | 0.00 | 75 | 1015.4 |
| 20260507123905 | 80 | 98 | 2.0 | 10.0 | 0.00 | 0.00 | 0.00 | 75 | 1015.3 |
| 20260507123404 | 80 | 133 | 5.0 | 12.0 | 0.00 | 0.00 | 0.00 | 75 | 1015.3 |
| 20260507122404 | 81 | 94 | 5.0 | 15.0 | 0.00 | 0.00 | 0.00 | 74 | 1015.1 |
| 20260507121904 | 81 | 108 | 3.0 | 12.0 | 0.00 | 0.00 | 0.00 | 74 | 1015.2 |
| 20260507120904 | 81 | 111 | 1.0 | 15.0 | 0.00 | 0.00 | 0.00 | 73 | 1015.1 |
| 20260507120404 | 81 | 77 | 2.0 | 10.0 | 0.00 | 0.00 | 0.00 | 75 | 1015.2 |
| 20260507115904 | 81 | 89 | 3.0 | 13.0 | 0.00 | 0.00 | 0.00 | 75 | 1015.1 |
| 20260507115404 | 81 | 99 | 6.0 | 14.0 | 0.00 | 0.00 | 0.00 | 75 | 1015.1 |
| 20260507114904 | 81 | 105 | 3.0 | 14.0 | 0.00 | 0.00 | 0.00 | 76 | 1015.1 |
| 20260507114404 | 81 | 95 | 6.0 | 15.0 | 0.00 | 0.00 | 0.00 | 76 | 1015.0 |
| 20260507113904 | 81 | 98 | 3.0 | 12.0 | 0.00 | 0.00 | 0.00 | 76 | 1014.9 |
| 20260507112904 | 81 | 84 | 4.0 | 12.0 | 0.00 | 0.00 | 0.00 | 76 | 1014.9 |
| 20260507112403 | 81 | 99 | 3.0 | 15.0 | 0.00 | 0.00 | 0.00 | 75 | 1015.0 |
| 20260507111905 | 81 | 120 | 3.0 | 15.0 | 0.00 | 0.00 | 0.00 | 76 | 1015.0 |
| 20260507111403 | 81 | 99 | 3.0 | 13.0 | 0.00 | 0.00 | 0.00 | 76 | 1014.9 |
| 20260507110404 | 81 | 104 | 3.0 | 14.0 | 0.00 | 0.00 | 0.00 | 76 | 1015.0 |
| 20260507105903 | 81 | 116 | 5.0 | 12.0 | 0.00 | 0.00 | 0.00 | 76 | 1015.0 |
| 20260507105404 | 82 | 98 | 7.0 | 13.0 | 0.00 | 0.00 | 0.00 | 75 | 1015.0 |
| 20260507104904 | 82 | 57 | 3.0 | 15.0 | 0.00 | 0.00 | 0.00 | 75 | 1015.0 |
| 20260507103405 | 82 | 102 | 5.0 | 16.0 | 0.00 | 0.00 | 0.00 | 75 | 1015.1 |
| 20260507102904 | 82 | 74 | 1.0 | 12.0 | 0.00 | 0.00 | 0.00 | 76 | 1015.1 |
| 20260507102404 | 82 | 103 | 5.0 | 13.0 | 0.00 | 0.00 | 0.00 | 76 | 1015.1 |
| 20260507101904 | 82 | 55 | 6.0 | 14.0 | 0.00 | 0.00 | 0.00 | 75 | 1015.2 |
| 20260507101404 | 82 | 91 | 3.0 | 13.0 | 0.00 | 0.00 | 0.00 | 76 | 1015.2 |
| 20260507100904 | 82 | 74 | 5.0 | 14.0 | 0.00 | 0.00 | 0.00 | 76 | 1015.2 |
| 20260507100404 | 82 | 59 | 9.0 | 14.0 | 0.00 | 0.00 | 0.00 | 76 | 1015.2 |
| 20260507094904 | 82 | 72 | 7.0 | 13.0 | 0.00 | 0.00 | 0.00 | 75 | 1015.4 |
| 20260507094404 | 82 | 131 | 7.0 | 13.0 | 0.00 | 0.00 | 0.00 | 76 | 1015.4 |
| 20260507093904 | 81 | 108 | 5.0 | 13.0 | 0.00 | 0.00 | 0.00 | 76 | 1015.5 |
| 20260507093404 | 82 | 93 | 5.0 | 16.0 | 0.00 | 0.00 | 0.00 | 75 | 1015.4 |
| 20260507092904 | 82 | 102 | 5.0 | 13.0 | 0.00 | 0.00 | 0.00 | 75 | 1015.6 |
| 20260507092404 | 82 | 128 | 6.0 | 15.0 | 0.00 | 0.00 | 0.00 | 74 | 1015.6 |
| 20260507090904 | 82 | 145 | 5.0 | 15.0 | 0.00 | 0.00 | 0.00 | 75 | 1015.6 |
| 20260507085905 | 82 | 77 | 7.0 | 15.0 | 0.00 | 0.00 | 0.00 | 74 | 1015.8 |
| 20260507085404 | 82 | 126 | 1.0 | 17.0 | 0.00 | 0.00 | 0.00 | 74 | 1015.8 |
| 20260507084904 | 82 | 83 | 5.0 | 14.0 | 0.00 | 0.00 | 0.00 | 74 | 1015.9 |
| 20260507084404 | 82 | 93 | 5.0 | 17.0 | 0.00 | 0.00 | 0.00 | 73 | 1015.8 |
| 20260507083904 | 82 | 73 | 6.0 | 13.0 | 0.00 | 0.00 | 0.00 | 74 | 1015.9 |
| 20260507083404 | 81 | 117 | 7.0 | 17.0 | 0.00 | 0.00 | 0.00 | 74 | 1015.9 |
| 20260507082905 | 81 | 98 | 7.0 | 15.0 | 0.00 | 0.00 | 0.00 | 75 | 1016.0 |
| 20260507081904 | 81 | 83 | 5.0 | 12.0 | 0.00 | 0.00 | 0.00 | 75 | 1016.2 |
| 20260507081404 | 81 | 118 | 6.0 | 16.0 | 0.00 | 0.00 | 0.00 | 76 | 1016.1 |
| 20260507080404 | 81 | 74 | 3.0 | 12.0 | 0.00 | 0.00 | 0.00 | 75 | 1016.2 |
| 20260507075904 | 81 | 91 | 5.0 | 13.0 | 0.00 | 0.00 | 0.00 | 74 | 1016.2 |
| 20260507075404 | 81 | 107 | 5.0 | 13.0 | 0.00 | 0.00 | 0.00 | 74 | 1016.2 |
| 20260507074905 | 82 | 139 | 7.0 | 14.0 | 0.00 | 0.00 | 0.00 | 74 | 1016.3 |
| 20260507074404 | 81 | 142 | 5.0 | 12.0 | 0.00 | 0.00 | 0.00 | 74 | 1016.4 |
| 20260507073904 | 81 | 103 | 6.0 | 14.0 | 0.00 | 0.00 | 0.00 | 75 | 1016.4 |
| 20260507073404 | 81 | 128 | 8.0 | 15.0 | 0.00 | 0.00 | 0.00 | 74 | 1016.5 |
| 20260507072904 | 82 | 82 | 5.0 | 15.0 | 0.00 | 0.00 | 0.00 | 74 | 1016.5 |
| 20260507072404 | 82 | 99 | 4.0 | 15.0 | 0.00 | 0.00 | 0.00 | 74 | 1016.6 |
| 20260507071904 | 81 | 120 | 4.0 | 14.0 | 0.00 | 0.00 | 0.00 | 74 | 1016.6 |
| 20260507071404 | 81 | 96 | 5.0 | 16.0 | 0.00 | 0.00 | 0.00 | 73 | 1016.7 |
| 20260507070904 | 82 | 79 | 9.0 | 17.0 | 0.00 | 0.00 | 0.00 | 73 | 1016.8 |
| 20260507065904 | 82 | 86 | 3.0 | 17.0 | 0.00 | 0.00 | 0.00 | 73 | 1016.9 |
| 20260507064404 | 81 | 81 | 7.0 | 16.0 | 0.00 | 0.00 | 0.00 | 74 | 1017.0 |
| 20260507063905 | 82 | 128 | 4.0 | 15.0 | 0.00 | 0.00 | 0.00 | 73 | 1017.0 |
| 20260507063403 | 81 | 135 | 3.0 | 14.0 | 0.00 | 0.00 | 0.00 | 74 | 1017.1 |
| 20260507062904 | 81 | 92 | 8.0 | 16.0 | 0.00 | 0.00 | 0.00 | 71 | 1017.1 |
| 20260507062404 | 81 | 133 | 2.0 | 16.0 | 0.00 | 0.00 | 0.00 | 71 | 1017.2 |
| 20260507061404 | 81 | 130 | 7.0 | 16.0 | 0.00 | 0.00 | 0.00 | 71 | 1017.0 |
| 20260507060904 | 81 | 97 | 6.0 | 14.0 | 0.00 | 0.00 | 0.00 | 71 | 1017.1 |
| 20260507060404 | 81 | 86 | 10.0 | 22.0 | 0.00 | 0.00 | 0.00 | 71 | 1017.2 |
| 20260507055904 | 81 | 79 | 6.0 | 15.0 | 0.00 | 0.00 | 0.00 | 71 | 1017.2 |
| 20260507055404 | 81 | 84 | 4.0 | 12.0 | 0.00 | 0.00 | 0.00 | 72 | 1017.2 |
| 20260507054904 | 81 | 88 | 6.0 | 15.0 | 0.00 | 0.00 | 0.00 | 72 | 1017.2 |
| 20260507054404 | 81 | 104 | 5.0 | 16.0 | 0.00 | 0.00 | 0.00 | 72 | 1017.2 |
| 20260507053904 | 81 | 100 | 6.0 | 15.0 | 0.00 | 0.00 | 0.00 | 73 | 1017.2 |
| 20260507053404 | 81 | 100 | 5.0 | 16.0 | 0.00 | 0.00 | 0.00 | 73 | 1017.2 |
| 20260507052903 | 81 | 116 | 5.0 | 14.0 | 0.00 | 0.00 | 0.00 | 74 | 1017.2 |
| 20260507052404 | 80 | 77 | 6.0 | 15.0 | 0.00 | 0.00 | 0.00 | 74 | 1017.2 |
| 20260507051404 | 79 | 107 | 5.0 | 12.0 | 0.00 | 0.00 | 0.00 | 75 | 1017.2 |
| 20260507050904 | 79 | 130 | 6.0 | 13.0 | 0.00 | 0.00 | 0.00 | 75 | 1017.2 |
| 20260507050404 | 79 | 107 | 6.0 | 12.0 | 0.00 | 0.00 | 0.00 | 76 | 1017.2 |
| 20260507045904 | 79 | 154 | 4.0 | 10.0 | 0.00 | 0.00 | 0.00 | 77 | 1017.2 |
| 20260507045404 | 80 | 111 | 3.0 | 12.0 | 0.00 | 0.00 | 0.00 | 76 | 1017.2 |
| 20260507044403 | 79 | 166 | 4.0 | 12.0 | 0.00 | 0.00 | 0.00 | 77 | 1017.1 |
| 20260507043903 | 79 | 148 | 6.0 | 13.0 | 0.00 | 0.00 | 0.00 | 77 | 1017.0 |
| 20260507043404 | 79 | 128 | 3.0 | 13.0 | 0.00 | 0.00 | 0.00 | 77 | 1017.0 |
| 20260507042404 | 79 | 140 | 5.0 | 12.0 | 0.00 | 0.00 | 0.00 | 78 | 1016.9 |
| 20260507041904 | 78 | 177 | 2.0 | 9.0 | 0.00 | 0.00 | 0.00 | 79 | 1016.9 |
| 20260507041404 | 78 | 107 | 3.0 | 10.0 | 0.00 | 0.00 | 0.00 | 79 | 1016.8 |
| 20260507040904 | 78 | 115 | 4.0 | 10.0 | 0.00 | 0.00 | 0.00 | 79 | 1016.8 |
| 20260507040404 | 78 | 160 | 5.0 | 12.0 | 0.00 | 0.00 | 0.00 | 79 | 1016.8 |
| 20260507035904 | 77 | 129 | 3.0 | 12.0 | 0.00 | 0.00 | 0.00 | 80 | 1016.8 |
| 20260507035404 | 77 | 170 | 4.0 | 12.0 | 0.00 | 0.00 | 0.00 | 81 | 1016.7 |
| 20260507034904 | 76 | 173 | 2.0 | 12.0 | 0.00 | 0.00 | 0.00 | 81 | 1016.5 |
| 20260507034404 | 76 | 142 | 2.0 | 9.0 | 0.00 | 0.00 | 0.00 | 82 | 1016.5 |
| 20260507033904 | 76 | 151 | 3.0 | 8.0 | 0.00 | 0.00 | 0.00 | 83 | 1016.5 |
| 20260507033404 | 75 | 125 | 1.0 | 12.0 | 0.00 | 0.00 | 0.00 | 83 | 1016.4 |
| 20260507032404 | 74 | 170 | 3.0 | 12.0 | 0.00 | 0.00 | 0.00 | 84 | 1016.4 |
| 20260507031904 | 74 | 172 | 1.0 | 9.0 | 0.00 | 0.00 | 0.00 | 84 | 1016.3 |
| 20260507030404 | 74 | 163 | 3.0 | 8.0 | 0.00 | 0.00 | 0.00 | 85 | 1016.2 |
| 20260507025905 | 74 | 170 | 2.0 | 7.0 | 0.00 | 0.00 | 0.00 | 85 | 1016.2 |
| 20260507024904 | 73 | 159 | 1.0 | 6.0 | 0.00 | 0.00 | 0.00 | 86 | 1016.2 |
| 20260507023904 | 73 | 144 | 0.0 | 1.0 | 0.00 | 0.00 | 0.00 | 86 | 1016.1 |
| 20260507023404 | 73 | 127 | 0.0 | 5.0 | 0.00 | 0.00 | 0.00 | 86 | 1016.1 |
| 20260507022405 | 73 | 121 | 1.0 | 7.0 | 0.00 | 0.00 | 0.00 | 86 | 1016.2 |
| 20260507021904 | 73 | 100 | 1.0 | 7.0 | 0.00 | 0.00 | 0.00 | 86 | 1016.1 |
| 20260507021404 | 73 | 110 | 0.0 | 1.0 | 0.00 | 0.00 | 0.00 | 86 | 1016.1 |
| 20260507020904 | 73 | 155 | 0.0 | 1.0 | 0.00 | 0.00 | 0.00 | 86 | 1016.1 |
| 20260507020404 | 73 | 106 | 0.0 | 0.0 | 0.00 | 0.00 | 0.00 | 86 | 1016.1 |
| 20260507015904 | 73 | 137 | 0.0 | 5.0 | 0.00 | 0.00 | 0.00 | 86 | 1016.1 |
| 20260507015404 | 73 | 50 | 1.0 | 5.0 | 0.00 | 0.00 | 0.00 | 86 | 1016.1 |
| 20260507014904 | 73 | 174 | 1.0 | 7.0 | 0.00 | 0.00 | 0.00 | 86 | 1016.0 |
| 20260507014404 | 73 | 170 | 1.0 | 5.0 | 0.00 | 0.00 | 0.00 | 86 | 1016.0 |
| 20260507013904 | 73 | 157 | 1.0 | 7.0 | 0.00 | 0.00 | 0.00 | 86 | 1015.9 |
| 20260507013404 | 73 | 142 | 0.0 | 6.0 | 0.00 | 0.00 | 0.00 | 86 | 1015.9 |